Search for airport 
image banner adimage banner ad
image banner ad

TFFC - Saint Francois

Located in Saint Francois, Guadeloupe

ICAO - TFFC, IATA - SFC

Data provided by Airmate  

General information

Coordinates: N16°15'28" W61°15'45"
Elevation is 10 feet MSL.
Magnetic variation is -14.7° East
Rated:
View ratings: [VIEW]


View others Airports in (unassigned)

Operational data

Open for public use
Current time UTC:
Current local time:
Weather at : TFFR - Pointe A Pitre Le Raizet ( 28 km )
METAR: TFFR 210230Z AUTO 12002KT 9999 FEW043 BKN056 25/24 Q1014 TEMPO 4000 SHRA BKN015TCU
TAF: TAF TFFR 202300Z 2100/2124 VRB02KT 9999 SCT035 BKN050 PROB40 TEMPO 2100/2124 4000 SHRA BKN015TCU BECMG 2106/2108 08010KT PROB40 TEMPO 2106/2113 2000 SHRA FEW012CB BKN015TCU
View NOTAMs / SUP AIP / TFR affecting this airport [VIEW]
Communications frequencies: [VIEW]

Runways:

RWY identifierQFULength (ft)Width (ft)SurfaceLDA (ft)
1199°191659ASPH1916
29279°191659ASPH1916

Airport contact information

Address: Saint Francois Guadeloupe

Other aviation service providers

Aviation club (not for profit)

Aéroclub Saint-François Caraïbes

Aéroclub Saint-François Caraïbes

ULM Caraïbes

ULM Caraïbes
+330690642848

Satellite view of TFFC